カタログに戻る

COSMOS 1275 DEB

運用中PO
NORAD 42145·DEBRIS·🇷🇺 Russia

打ち上げ Jun 4, 1981 から Plesetsk Cosmodrome

Loading…

次のパス (今後24時間)

TLE

古いSource: Space-Track

元期: Sep 3, 2026, 03:54 UTC

1 42145U 81053RH  26246.16300146  .00310533  00000-0  54929-2 0  9990
2 42145  83.3429  37.5963 0004207 309.7349  50.3532 15.49181418676085

AllMySatでCOSMOS 1275 DEBをリアルタイム追跡

Download on the App Store